| time (UTC) | temp C | wind direction | speed KPH | gust KPH | rain 1hr cm | rain 24hr cm | rain mn cm | humidity % | barometer mb |
| 20260509051537 | 3 | 191 | 0.0 | 0.0 | 0.00 | 0.00 | 0.00 | 91 | 1024.4 |
| 20260509051034 | 3 | 191 | 0.0 | 0.0 | 0.00 | 0.00 | 0.00 | 91 | 1024.4 |
| 20260509050534 | 2 | 191 | 0.0 | 0.0 | 0.00 | 0.00 | 0.00 | 91 | 1024.3 |
| 20260509050035 | 2 | 191 | 0.0 | 0.0 | 0.00 | 0.00 | 0.00 | 91 | 1024.4 |
| 20260509045532 | 2 | 191 | 0.0 | 0.0 | 0.00 | 0.00 | 0.00 | 91 | 1024.4 |
| 20260509045033 | 2 | 191 | 0.0 | 0.0 | 0.00 | 0.00 | 0.00 | 90 | 1024.4 |
| 20260509044533 | 1 | 191 | 0.0 | 0.0 | 0.00 | 0.00 | 0.00 | 90 | 1024.4 |
| 20260509044031 | 1 | 191 | 0.0 | 0.0 | 0.00 | 0.00 | 0.00 | 90 | 1024.3 |
| 20260509043530 | 1 | 191 | 0.0 | 0.0 | 0.00 | 0.00 | 0.00 | 89 | 1024.4 |
| 20260509043029 | 1 | 191 | 0.0 | 1.6 | 0.00 | 0.00 | 0.00 | 89 | 1024.4 |
| 20260509042529 | 1 | 191 | 0.0 | 1.6 | 0.00 | 0.00 | 0.00 | 89 | 1024.4 |
| 20260509042028 | 1 | 191 | 0.0 | 1.6 | 0.00 | 0.00 | 0.00 | 89 | 1024.5 |
| 20260509041527 | 1 | 191 | 0.0 | 1.6 | 0.00 | 0.00 | 0.00 | 89 | 1024.5 |
| 20260509041028 | 1 | 191 | 0.0 | 1.6 | 0.00 | 0.00 | 0.00 | 89 | 1024.5 |
| 20260509040528 | 1 | 191 | 0.0 | 0.0 | 0.00 | 0.00 | 0.00 | 88 | 1024.5 |
| 20260509040025 | 1 | 191 | 0.0 | 1.6 | 0.00 | 0.00 | 0.00 | 88 | 1024.5 |
| 20260509035528 | 1 | 191 | 0.0 | 1.6 | 0.00 | 0.00 | 0.00 | 88 | 1024.6 |
| 20260509035026 | 1 | 191 | 0.0 | 1.6 | 0.00 | 0.00 | 0.00 | 87 | 1024.6 |
| 20260509034538 | 1 | 191 | 0.0 | 1.6 | 0.00 | 0.00 | 0.00 | 87 | 1024.6 |
| 20260509034024 | 1 | 191 | 0.0 | 1.6 | 0.00 | 0.00 | 0.00 | 87 | 1024.6 |
| 20260509033520 | 1 | 191 | 0.0 | 1.6 | 0.00 | 0.00 | 0.00 | 87 | 1024.6 |
| 20260509033019 | 1 | 191 | 0.0 | 1.6 | 0.00 | 0.00 | 0.00 | 87 | 1024.6 |
| 20260509032518 | 1 | 191 | 0.0 | 1.6 | 0.00 | 0.00 | 0.00 | 87 | 1024.6 |
| 20260509032020 | 2 | 191 | 0.0 | 1.6 | 0.00 | 0.00 | 0.00 | 86 | 1024.6 |
| 20260509031516 | 2 | 191 | 0.0 | 1.6 | 0.00 | 0.00 | 0.00 | 86 | 1024.6 |
| 20260509031015 | 2 | 191 | 0.0 | 1.6 | 0.00 | 0.00 | 0.00 | 85 | 1024.6 |
| 20260509030515 | 2 | 191 | 0.0 | 1.6 | 0.00 | 0.00 | 0.00 | 85 | 1024.6 |
| 20260509030019 | 2 | 191 | 0.0 | 1.6 | 0.00 | 0.00 | 0.00 | 84 | 1024.6 |
| 20260509025514 | 2 | 191 | 0.0 | 3.2 | 0.00 | 0.00 | 0.00 | 84 | 1024.6 |
| 20260509025010 | 3 | 191 | 0.0 | 3.2 | 0.00 | 0.00 | 0.00 | 83 | 1024.6 |
| 20260509024510 | 3 | 191 | 0.0 | 1.6 | 0.00 | 0.00 | 0.00 | 83 | 1024.6 |
| 20260509024011 | 3 | 191 | 0.0 | 1.6 | 0.00 | 0.00 | 0.00 | 83 | 1024.7 |
| 20260509023509 | 3 | 191 | 0.0 | 1.6 | 0.00 | 0.00 | 0.00 | 82 | 1024.7 |
| 20260509023008 | 3 | 191 | 0.0 | 1.6 | 0.00 | 0.00 | 0.00 | 82 | 1024.8 |
| 20260509022507 | 3 | 191 | 0.0 | 1.6 | 0.00 | 0.00 | 0.00 | 81 | 1024.8 |
| 20260509022008 | 4 | 191 | 0.0 | 1.6 | 0.00 | 0.00 | 0.00 | 79 | 1024.8 |
| 20260509021508 | 4 | 191 | 0.0 | 1.6 | 0.00 | 0.00 | 0.00 | 78 | 1024.8 |
| 20260509021010 | 5 | 191 | 0.0 | 3.2 | 0.00 | 0.00 | 0.00 | 78 | 1024.8 |
| 20260509020512 | 5 | 191 | 0.0 | 3.2 | 0.00 | 0.00 | 0.00 | 77 | 1024.9 |
| 20260509020006 | 5 | 191 | 0.0 | 6.4 | 0.00 | 0.00 | 0.00 | 78 | 1024.8 |
| 20260509015507 | 5 | 164 | 1.6 | 6.4 | 0.00 | 0.00 | 0.00 | 80 | 1024.8 |
| 20260509015006 | 5 | 168 | 0.0 | 4.8 | 0.00 | 0.00 | 0.00 | 81 | 1024.8 |
| 20260509014504 | 4 | 223 | 0.0 | 4.8 | 0.00 | 0.00 | 0.00 | 83 | 1024.9 |
| 20260509014004 | 4 | 206 | 0.0 | 4.8 | 0.00 | 0.00 | 0.00 | 83 | 1024.9 |
| 20260509013503 | 3 | 206 | 0.0 | 4.8 | 0.00 | 0.00 | 0.00 | 85 | 1024.9 |
| 20260509013003 | 3 | 213 | 0.0 | 3.2 | 0.00 | 0.00 | 0.00 | 87 | 1024.9 |
| 20260509012504 | 3 | 195 | 0.0 | 3.2 | 0.00 | 0.00 | 0.00 | 87 | 1024.9 |
| 20260509012002 | 3 | 196 | 0.0 | 3.2 | 0.00 | 0.00 | 0.00 | 87 | 1024.9 |
| 20260509011502 | 3 | 196 | 0.0 | 3.2 | 0.00 | 0.00 | 0.00 | 87 | 1025.0 |
| 20260509011002 | 3 | 196 | 0.0 | 3.2 | 0.00 | 0.00 | 0.00 | 88 | 1025.0 |
| 20260509010502 | 3 | 196 | 0.0 | 3.2 | 0.00 | 0.00 | 0.00 | 87 | 1025.0 |
| 20260509010107 | 3 | 196 | 0.0 | 3.2 | 0.00 | 0.00 | 0.00 | 88 | 1025.0 |
| 20260509005603 | 3 | 196 | 0.0 | 3.2 | 0.00 | 0.00 | 0.00 | 88 | 1025.0 |
| 20260509005059 | 3 | 196 | 0.0 | 3.2 | 0.00 | 0.00 | 0.00 | 88 | 1025.0 |
| 20260509004622 | 3 | 196 | 0.0 | 1.6 | 0.00 | 0.00 | 0.00 | 88 | 1025.0 |
| 20260509004058 | 3 | 196 | 0.0 | 1.6 | 0.00 | 0.00 | 0.00 | 88 | 1025.0 |
| 20260509003602 | 3 | 196 | 0.0 | 1.6 | 0.00 | 0.00 | 0.00 | 88 | 1025.1 |
| 20260509003057 | 3 | 196 | 0.0 | 0.0 | 0.00 | 0.00 | 0.00 | 88 | 1025.1 |
| 20260509002556 | 3 | 196 | 0.0 | 0.0 | 0.00 | 0.00 | 0.00 | 88 | 1025.1 |
| 20260509002056 | 3 | 196 | 0.0 | 1.6 | 0.00 | 0.00 | 0.00 | 87 | 1025.1 |
| 20260509001557 | 3 | 196 | 0.0 | 1.6 | 0.00 | 0.00 | 0.00 | 87 | 1025.1 |
| 20260509001055 | 3 | 196 | 0.0 | 0.0 | 0.00 | 0.00 | 0.00 | 87 | 1025.1 |
| 20260509000554 | 3 | 196 | 0.0 | 0.0 | 0.00 | 0.00 | 0.00 | 87 | 1025.1 |
| 20260509000054 | 3 | 196 | 0.0 | 0.0 | 0.00 | 0.00 | 0.00 | 87 | 1025.1 |
| 20260508235553 | 3 | 196 | 0.0 | 0.0 | 0.00 | 0.00 | 0.00 | 87 | 1025.0 |
| 20260508235055 | 3 | 196 | 0.0 | 0.0 | 0.00 | 0.00 | 0.00 | 87 | 1025.0 |
| 20260508234552 | 3 | 196 | 0.0 | 0.0 | 0.00 | 0.00 | 0.00 | 87 | 1025.1 |
| 20260508234054 | 3 | 196 | 0.0 | 0.0 | 0.00 | 0.00 | 0.00 | 87 | 1025.0 |
| 20260508233554 | 4 | 196 | 0.0 | 0.0 | 0.00 | 0.00 | 0.00 | 87 | 1025.1 |
| 20260508233050 | 4 | 196 | 0.0 | 0.0 | 0.00 | 0.00 | 0.00 | 87 | 1025.0 |
| 20260508232549 | 4 | 196 | 0.0 | 0.0 | 0.00 | 0.00 | 0.00 | 87 | 1025.1 |
| 20260508232050 | 4 | 196 | 0.0 | 0.0 | 0.00 | 0.00 | 0.00 | 87 | 1025.1 |
| 20260508231547 | 4 | 196 | 0.0 | 0.0 | 0.00 | 0.00 | 0.00 | 87 | 1025.1 |
| 20260508231047 | 4 | 196 | 0.0 | 0.0 | 0.00 | 0.00 | 0.00 | 87 | 1025.1 |
| 20260508230547 | 4 | 196 | 0.0 | 0.0 | 0.00 | 0.00 | 0.00 | 87 | 1025.1 |
| 20260508230051 | 4 | 196 | 0.0 | 0.0 | 0.00 | 0.00 | 0.00 | 87 | 1025.0 |
| 20260508225546 | 4 | 196 | 0.0 | 0.0 | 0.00 | 0.00 | 0.00 | 87 | 1025.1 |
| 20260508225045 | 5 | 196 | 0.0 | 0.0 | 0.00 | 0.00 | 0.00 | 86 | 1025.0 |
| 20260508224550 | 5 | 196 | 0.0 | 0.0 | 0.00 | 0.00 | 0.00 | 86 | 1025.0 |
| 20260508224043 | 5 | 196 | 0.0 | 0.0 | 0.00 | 0.00 | 0.00 | 86 | 1025.0 |
| 20260508223543 | 5 | 196 | 0.0 | 0.0 | 0.00 | 0.00 | 0.00 | 86 | 1025.1 |
| 20260508223048 | 5 | 196 | 0.0 | 0.0 | 0.00 | 0.00 | 0.00 | 85 | 1025.0 |
| 20260508222540 | 5 | 196 | 0.0 | 0.0 | 0.00 | 0.00 | 0.00 | 85 | 1025.0 |
| 20260508222040 | 5 | 196 | 0.0 | 0.0 | 0.00 | 0.00 | 0.00 | 85 | 1024.9 |
| 20260508221539 | 5 | 196 | 0.0 | 0.0 | 0.00 | 0.00 | 0.00 | 85 | 1024.9 |
| 20260508221039 | 5 | 196 | 0.0 | 1.6 | 0.00 | 0.00 | 0.00 | 85 | 1024.9 |
| 20260508220539 | 5 | 195 | 0.0 | 1.6 | 0.00 | 0.00 | 0.00 | 85 | 1024.9 |
| 20260508220037 | 5 | 196 | 0.0 | 1.6 | 0.00 | 0.00 | 0.00 | 86 | 1024.9 |
| 20260508215537 | 5 | 196 | 0.0 | 6.4 | 0.00 | 0.00 | 0.00 | 86 | 1024.9 |
| 20260508215037 | 5 | 196 | 1.6 | 6.4 | 0.00 | 0.00 | 0.00 | 87 | 1024.8 |
| 20260508214552 | 5 | 195 | 0.0 | 1.6 | 0.00 | 0.00 | 0.00 | 86 | 1024.8 |
| 20260508214038 | 5 | 195 | 0.0 | 0.0 | 0.00 | 0.00 | 0.00 | 86 | 1024.8 |
| 20260508213536 | 5 | 195 | 0.0 | 0.0 | 0.00 | 0.00 | 0.00 | 86 | 1024.8 |
| 20260508213035 | 5 | 195 | 0.0 | 0.0 | 0.00 | 0.00 | 0.00 | 86 | 1024.8 |
| 20260508212535 | 5 | 195 | 0.0 | 0.0 | 0.00 | 0.00 | 0.00 | 86 | 1024.8 |
| 20260508212036 | 6 | 195 | 0.0 | 0.0 | 0.00 | 0.00 | 0.00 | 86 | 1024.7 |
| 20260508211534 | 6 | 195 | 0.0 | 0.0 | 0.00 | 0.00 | 0.00 | 86 | 1024.6 |
| 20260508211034 | 6 | 195 | 0.0 | 0.0 | 0.00 | 0.00 | 0.00 | 85 | 1024.7 |
| 20260508210534 | 6 | 195 | 0.0 | 0.0 | 0.00 | 0.00 | 0.00 | 85 | 1024.7 |
| 20260508210037 | 6 | 195 | 0.0 | 0.0 | 0.00 | 0.00 | 0.00 | 85 | 1024.6 |
| 20260508205533 | 6 | 195 | 0.0 | 0.0 | 0.00 | 0.00 | 0.00 | 85 | 1024.6 |
| 20260508205033 | 6 | 195 | 0.0 | 0.0 | 0.00 | 0.00 | 0.00 | 84 | 1024.5 |
| 20260508204536 | 6 | 195 | 0.0 | 0.0 | 0.00 | 0.00 | 0.00 | 84 | 1024.5 |
| 20260508204032 | 6 | 195 | 0.0 | 0.0 | 0.00 | 0.00 | 0.00 | 84 | 1024.5 |
| 20260508203532 | 7 | 195 | 0.0 | 0.0 | 0.00 | 0.00 | 0.00 | 84 | 1024.5 |
| 20260508203031 | 7 | 195 | 0.0 | 0.0 | 0.00 | 0.00 | 0.00 | 84 | 1024.4 |
| 20260508202530 | 7 | 195 | 0.0 | 0.0 | 0.00 | 0.00 | 0.00 | 83 | 1024.4 |
| 20260508202030 | 7 | 195 | 0.0 | 0.0 | 0.00 | 0.00 | 0.00 | 83 | 1024.3 |
| 20260508201531 | 7 | 195 | 0.0 | 0.0 | 0.00 | 0.00 | 0.00 | 83 | 1024.2 |
| 20260508201029 | 7 | 195 | 0.0 | 0.0 | 0.00 | 0.00 | 0.00 | 82 | 1024.2 |
| 20260508200529 | 8 | 195 | 0.0 | 0.0 | 0.00 | 0.00 | 0.00 | 81 | 1024.1 |
| 20260508200030 | 8 | 195 | 0.0 | 0.0 | 0.00 | 0.00 | 0.00 | 81 | 1024.1 |
| 20260508195528 | 8 | 195 | 0.0 | 0.0 | 0.00 | 0.00 | 0.00 | 80 | 1024.1 |
| 20260508195028 | 8 | 195 | 0.0 | 0.0 | 0.00 | 0.00 | 0.00 | 80 | 1024.1 |
| 20260508194528 | 8 | 195 | 0.0 | 0.0 | 0.00 | 0.00 | 0.00 | 79 | 1024.1 |
| 20260508194027 | 9 | 195 | 0.0 | 0.0 | 0.00 | 0.00 | 0.00 | 78 | 1024.1 |
| 20260508193527 | 9 | 195 | 0.0 | 0.0 | 0.00 | 0.00 | 0.00 | 77 | 1024.0 |
| 20260508193030 | 9 | 195 | 0.0 | 0.0 | 0.00 | 0.00 | 0.00 | 76 | 1024.0 |
| 20260508192526 | 10 | 195 | 0.0 | 0.0 | 0.00 | 0.00 | 0.00 | 76 | 1023.9 |
| 20260508192027 | 10 | 195 | 0.0 | 0.0 | 0.00 | 0.00 | 0.00 | 75 | 1023.9 |
| 20260508191527 | 10 | 195 | 0.0 | 0.0 | 0.00 | 0.00 | 0.00 | 74 | 1023.8 |
| 20260508191024 | 11 | 195 | 0.0 | 0.0 | 0.00 | 0.00 | 0.00 | 73 | 1023.8 |
| 20260508190527 | 11 | 195 | 0.0 | 0.0 | 0.00 | 0.00 | 0.00 | 72 | 1023.8 |
| 20260508190044 | 11 | 195 | 0.0 | 1.6 | 0.00 | 0.00 | 0.00 | 72 | 1023.7 |
| 20260508185527 | 12 | 195 | 0.0 | 3.2 | 0.00 | 0.00 | 0.00 | 71 | 1023.6 |
| 20260508185023 | 12 | 195 | 0.0 | 4.8 | 0.00 | 0.00 | 0.00 | 71 | 1023.5 |
| 20260508184531 | 12 | 195 | 0.0 | 4.8 | 0.00 | 0.00 | 0.00 | 71 | 1023.5 |
| 20260508184027 | 12 | 195 | 0.0 | 4.8 | 0.00 | 0.00 | 0.00 | 72 | 1023.5 |
| 20260508183523 | 12 | 195 | 0.0 | 4.8 | 0.00 | 0.00 | 0.00 | 71 | 1023.4 |
| 20260508183034 | 12 | 177 | 1.6 | 4.8 | 0.00 | 0.00 | 0.00 | 70 | 1023.5 |
| 20260508182523 | 12 | 184 | 0.0 | 6.4 | 0.00 | 0.00 | 0.00 | 70 | 1023.5 |
| 20260508182022 | 12 | 184 | 3.2 | 6.4 | 0.00 | 0.00 | 0.00 | 70 | 1023.5 |
| 20260508181522 | 12 | 187 | 1.6 | 8.0 | 0.00 | 0.00 | 0.00 | 70 | 1023.4 |
| 20260508181022 | 12 | 207 | 1.6 | 8.0 | 0.00 | 0.00 | 0.00 | 69 | 1023.4 |
| 20260508180522 | 12 | 203 | 1.6 | 8.0 | 0.00 | 0.00 | 0.00 | 69 | 1023.4 |
| 20260508180022 | 12 | 170 | 3.2 | 8.0 | 0.00 | 0.00 | 0.00 | 68 | 1023.3 |
| 20260508175522 | 12 | 181 | 3.2 | 6.4 | 0.00 | 0.00 | 0.00 | 68 | 1023.3 |
| 20260508175022 | 13 | 217 | 1.6 | 9.7 | 0.00 | 0.00 | 0.00 | 66 | 1023.2 |
| 20260508174521 | 13 | 162 | 1.6 | 11.3 | 0.00 | 0.00 | 0.00 | 64 | 1023.1 |
| 20260508174021 | 13 | 194 | 1.6 | 8.0 | 0.00 | 0.00 | 0.00 | 63 | 1023.2 |
| 20260508173521 | 13 | 173 | 3.2 | 9.7 | 0.00 | 0.00 | 0.00 | 62 | 1023.2 |
| 20260508173022 | 13 | 186 | 1.6 | 12.9 | 0.00 | 0.00 | 0.00 | 61 | 1023.1 |
| 20260508172524 | 13 | 220 | 1.6 | 8.0 | 0.00 | 0.00 | 0.00 | 61 | 1023.2 |
| 20260508172020 | 13 | 175 | 3.2 | 6.4 | 0.00 | 0.00 | 0.00 | 60 | 1023.2 |
| 20260508171520 | 13 | 180 | 1.6 | 8.0 | 0.00 | 0.00 | 0.00 | 58 | 1023.2 |
| 20260508171019 | 13 | 223 | 1.6 | 11.3 | 0.00 | 0.00 | 0.00 | 56 | 1023.1 |
| 20260508170621 | 13 | 192 | 4.8 | 11.3 | 0.00 | 0.00 | 0.00 | 55 | 1023.1 |
| 20260508170030 | 14 | 192 | 3.2 | 9.7 | 0.00 | 0.00 | 0.00 | 54 | 1023.1 |
| 20260508165519 | 14 | 202 | 3.2 | 6.4 | 0.00 | 0.00 | 0.00 | 55 | 1023.2 |
| 20260508165021 | 15 | 154 | 1.6 | 6.4 | 0.00 | 0.00 | 0.00 | 54 | 1023.1 |
| 20260508164524 | 15 | 182 | 3.2 | 9.7 | 0.00 | 0.00 | 0.00 | 52 | 1023.1 |
| 20260508164019 | 15 | 203 | 4.8 | 9.7 | 0.00 | 0.00 | 0.00 | 51 | 1023.0 |
| 20260508163518 | 15 | 199 | 3.2 | 11.3 | 0.00 | 0.00 | 0.00 | 50 | 1023.1 |
| 20260508163020 | 15 | 79 | 1.6 | 4.8 | 0.00 | 0.00 | 0.00 | 50 | 1023.0 |
| 20260508162518 | 15 | 177 | 0.0 | 8.0 | 0.00 | 0.00 | 0.00 | 50 | 1023.0 |
| 20260508162018 | 15 | 164 | 4.8 | 8.0 | 0.00 | 0.00 | 0.00 | 50 | 1023.0 |
| 20260508161518 | 15 | 196 | 1.6 | 8.0 | 0.00 | 0.00 | 0.00 | 51 | 1023.0 |
| 20260508161018 | 14 | 231 | 3.2 | 12.9 | 0.00 | 0.00 | 0.00 | 50 | 1023.0 |
| 20260508160517 | 15 | 202 | 6.4 | 12.9 | 0.00 | 0.00 | 0.00 | 46 | 1023.1 |
| 20260508160019 | 15 | 157 | 4.8 | 11.3 | 0.00 | 0.00 | 0.00 | 47 | 1023.1 |
| 20260508155519 | 15 | 194 | 3.2 | 9.7 | 0.00 | 0.00 | 0.00 | 48 | 1023.1 |
| 20260508155017 | 15 | 188 | 3.2 | 9.7 | 0.00 | 0.00 | 0.00 | 47 | 1023.1 |
| 20260508154517 | 15 | 157 | 3.2 | 11.3 | 0.00 | 0.00 | 0.00 | 48 | 1023.1 |
| 20260508154016 | 15 | 193 | 6.4 | 11.3 | 0.00 | 0.00 | 0.00 | 48 | 1023.0 |
| 20260508153517 | 15 | 76 | 1.6 | 9.7 | 0.00 | 0.00 | 0.00 | 48 | 1023.1 |
| 20260508153028 | 15 | 154 | 3.2 | 9.7 | 0.00 | 0.00 | 0.00 | 48 | 1023.1 |
| 20260508152519 | 15 | 198 | 3.2 | 6.4 | 0.00 | 0.00 | 0.00 | 47 | 1023.0 |
| 20260508152016 | 16 | 211 | 3.2 | 9.7 | 0.00 | 0.00 | 0.00 | 46 | 1023.0 |
| 20260508151516 | 16 | 154 | 1.6 | 9.7 | 0.00 | 0.00 | 0.00 | 45 | 1023.1 |
| 20260508151016 | 16 | 167 | 3.2 | 9.7 | 0.00 | 0.00 | 0.00 | 43 | 1023.1 |
| 20260508150517 | 15 | 90 | 3.2 | 9.7 | 0.00 | 0.00 | 0.00 | 45 | 1023.1 |
| 20260508150016 | 15 | 136 | 3.2 | 11.3 | 0.00 | 0.00 | 0.00 | 45 | 1023.1 |
| 20260508145514 | 16 | 195 | 3.2 | 9.7 | 0.00 | 0.00 | 0.00 | 45 | 1023.2 |
| 20260508145014 | 15 | 175 | 4.8 | 9.7 | 0.00 | 0.00 | 0.00 | 42 | 1023.2 |
| 20260508144524 | 15 | 235 | 4.8 | 14.5 | 0.00 | 0.00 | 0.00 | 42 | 1023.2 |
| 20260508144013 | 16 | 209 | 4.8 | 14.5 | 0.00 | 0.00 | 0.00 | 46 | 1023.3 |
| 20260508143512 | 16 | 99 | 1.6 | 9.7 | 0.00 | 0.00 | 0.00 | 46 | 1023.3 |
| 20260508143011 | 16 | 173 | 1.6 | 9.7 | 0.00 | 0.00 | 0.00 | 48 | 1023.3 |
| 20260508142510 | 16 | 155 | 1.6 | 9.7 | 0.00 | 0.00 | 0.00 | 50 | 1023.4 |
| 20260508142015 | 16 | 183 | 1.6 | 9.7 | 0.00 | 0.00 | 0.00 | 51 | 1023.4 |
| 20260508141512 | 16 | 97 | 1.6 | 8.0 | 0.00 | 0.00 | 0.00 | 49 | 1023.4 |
| 20260508141009 | 16 | 181 | 3.2 | 11.3 | 0.00 | 0.00 | 0.00 | 50 | 1023.4 |
| 20260508140509 | 16 | 194 | 3.2 | 11.3 | 0.00 | 0.00 | 0.00 | 51 | 1023.4 |
| 20260508140019 | 16 | 180 | 1.6 | 12.9 | 0.00 | 0.00 | 0.00 | 51 | 1023.4 |
| 20260508135510 | 16 | 157 | 1.6 | 12.9 | 0.00 | 0.00 | 0.00 | 51 | 1023.4 |
| 20260508135010 | 16 | 150 | 3.2 | 8.0 | 0.00 | 0.00 | 0.00 | 50 | 1023.5 |
| 20260508134508 | 15 | 219 | 3.2 | 11.3 | 0.00 | 0.00 | 0.00 | 50 | 1023.5 |
| 20260508134007 | 15 | 123 | 3.2 | 14.5 | 0.00 | 0.00 | 0.00 | 51 | 1023.5 |
| 20260508133507 | 15 | 202 | 4.8 | 14.5 | 0.00 | 0.00 | 0.00 | 54 | 1023.5 |
| 20260508133006 | 16 | 192 | 4.8 | 11.3 | 0.00 | 0.00 | 0.00 | 60 | 1023.6 |
| 20260508132508 | 16 | 50 | 1.6 | 9.7 | 0.00 | 0.00 | 0.00 | 62 | 1023.6 |
| 20260508132004 | 16 | 121 | 4.8 | 9.7 | 0.00 | 0.00 | 0.00 | 64 | 1023.6 |
| 20260508131503 | 16 | 117 | 3.2 | 11.3 | 0.00 | 0.00 | 0.00 | 66 | 1023.7 |
| 20260508131004 | 15 | 83 | 1.6 | 9.7 | 0.00 | 0.00 | 0.00 | 66 | 1023.7 |
| 20260508130503 | 15 | 118 | 3.2 | 9.7 | 0.00 | 0.00 | 0.00 | 66 | 1023.7 |
| 20260508130001 | 16 | 71 | 1.6 | 9.7 | 0.00 | 0.00 | 0.00 | 67 | 1023.7 |
| 20260508125600 | 15 | 16 | 1.6 | 9.7 | 0.00 | 0.00 | 0.00 | 67 | 1023.7 |
| 20260508125058 | 15 | 124 | 3.2 | 9.7 | 0.00 | 0.00 | 0.00 | 68 | 1023.7 |
| 20260508124558 | 15 | 135 | 1.6 | 8.0 | 0.00 | 0.00 | 0.00 | 71 | 1023.7 |
| 20260508124057 | 15 | 117 | 3.2 | 8.0 | 0.00 | 0.00 | 0.00 | 69 | 1023.7 |
| 20260508123557 | 15 | 101 | 4.8 | 9.7 | 0.00 | 0.00 | 0.00 | 68 | 1023.7 |
| 20260508123114 | 15 | 60 | 3.2 | 11.3 | 0.00 | 0.00 | 0.00 | 69 | 1023.7 |
| 20260508122555 | 15 | 189 | 4.8 | 11.3 | 0.00 | 0.00 | 0.00 | 67 | 1023.7 |
| 20260508122056 | 15 | 162 | 3.2 | 12.9 | 0.00 | 0.00 | 0.00 | 68 | 1023.7 |
| 20260508121607 | 15 | 60 | 4.8 | 12.9 | 0.00 | 0.00 | 0.00 | 67 | 1023.7 |
| 20260508121054 | 15 | 72 | 4.8 | 11.3 | 0.00 | 0.00 | 0.00 | 66 | 1023.6 |
| 20260508120553 | 15 | 169 | 3.2 | 11.3 | 0.00 | 0.00 | 0.00 | 67 | 1023.6 |
| 20260508120108 | 15 | 182 | 4.8 | 12.9 | 0.00 | 0.00 | 0.00 | 66 | 1023.7 |
| 20260508115553 | 15 | 171 | 4.8 | 12.9 | 0.00 | 0.00 | 0.00 | 63 | 1023.8 |
| 20260508115051 | 15 | 155 | 3.2 | 12.9 | 0.00 | 0.00 | 0.00 | 62 | 1023.8 |
| 20260508114559 | 15 | 166 | 4.8 | 12.9 | 0.00 | 0.00 | 0.00 | 63 | 1023.7 |
| 20260508114053 | 15 | 107 | 4.8 | 12.9 | 0.00 | 0.00 | 0.00 | 61 | 1023.7 |
| 20260508113553 | 15 | 139 | 3.2 | 12.9 | 0.00 | 0.00 | 0.00 | 64 | 1023.6 |
| 20260508113103 | 15 | 180 | 4.8 | 12.9 | 0.00 | 0.00 | 0.00 | 62 | 1023.6 |
| 20260508112548 | 15 | 355 | 3.2 | 11.3 | 0.00 | 0.00 | 0.00 | 62 | 1023.6 |
| 20260508112047 | 15 | 236 | 3.2 | 11.3 | 0.00 | 0.00 | 0.00 | 62 | 1023.6 |
| 20260508111550 | 15 | 128 | 4.8 | 12.9 | 0.00 | 0.00 | 0.00 | 62 | 1023.7 |
| 20260508111049 | 15 | 100 | 4.8 | 11.3 | 0.00 | 0.00 | 0.00 | 62 | 1023.7 |
| 20260508110546 | 15 | 128 | 3.2 | 8.0 | 0.00 | 0.00 | 0.00 | 65 | 1023.7 |
| 20260508110045 | 15 | 141 | 3.2 | 16.1 | 0.00 | 0.00 | 0.00 | 64 | 1023.7 |
| 20260508105545 | 15 | 203 | 4.8 | 12.9 | 0.00 | 0.00 | 0.00 | 62 | 1023.6 |
| 20260508105044 | 15 | 122 | 3.2 | 12.9 | 0.00 | 0.00 | 0.00 | 61 | 1023.7 |
| 20260508104547 | 15 | 213 | 3.2 | 14.5 | 0.00 | 0.00 | 0.00 | 61 | 1023.6 |
| 20260508104043 | 15 | 78 | 1.6 | 11.3 | 0.00 | 0.00 | 0.00 | 59 | 1023.6 |
| 20260508103542 | 15 | 110 | 3.2 | 11.3 | 0.00 | 0.00 | 0.00 | 62 | 1023.6 |
| 20260508103054 | 15 | 86 | 3.2 | 9.7 | 0.00 | 0.00 | 0.00 | 61 | 1023.6 |
| 20260508102539 | 14 | 175 | 3.2 | 12.9 | 0.00 | 0.00 | 0.00 | 63 | 1023.5 |
| 20260508102038 | 14 | 73 | 4.8 | 14.5 | 0.00 | 0.00 | 0.00 | 61 | 1023.6 |
| 20260508101544 | 14 | 182 | 6.4 | 14.5 | 0.00 | 0.00 | 0.00 | 62 | 1023.5 |
| 20260508101037 | 14 | 167 | 4.8 | 9.7 | 0.00 | 0.00 | 0.00 | 62 | 1023.5 |
| 20260508100536 | 14 | 17 | 3.2 | 11.3 | 0.00 | 0.00 | 0.00 | 61 | 1023.5 |
| 20260508100035 | 14 | 148 | 3.2 | 14.5 | 0.00 | 0.00 | 0.00 | 60 | 1023.4 |
| 20260508095537 | 13 | 21 | 4.8 | 14.5 | 0.00 | 0.00 | 0.00 | 57 | 1023.4 |
| 20260508095034 | 14 | 185 | 4.8 | 12.9 | 0.00 | 0.00 | 0.00 | 57 | 1023.4 |
| 20260508094535 | 14 | 159 | 4.8 | 9.7 | 0.00 | 0.00 | 0.00 | 53 | 1023.4 |
| 20260508094034 | 15 | 242 | 1.6 | 12.9 | 0.00 | 0.00 | 0.00 | 53 | 1023.4 |
| 20260508093533 | 14 | 52 | 4.8 | 12.9 | 0.00 | 0.00 | 0.00 | 54 | 1023.5 |
| 20260508093038 | 14 | 205 | 3.2 | 11.3 | 0.00 | 0.00 | 0.00 | 56 | 1023.4 |
| 20260508092531 | 14 | 164 | 3.2 | 11.3 | 0.00 | 0.00 | 0.00 | 56 | 1023.4 |
| 20260508092030 | 15 | 118 | 3.2 | 11.3 | 0.00 | 0.00 | 0.00 | 55 | 1023.5 |
| 20260508091533 | 15 | 76 | 3.2 | 9.7 | 0.00 | 0.00 | 0.00 | 56 | 1023.4 |
| 20260508091029 | 15 | 174 | 3.2 | 8.0 | 0.00 | 0.00 | 0.00 | 57 | 1023.4 |
| 20260508090528 | 15 | 93 | 3.2 | 8.0 | 0.00 | 0.00 | 0.00 | 57 | 1023.5 |
| 20260508090025 | 15 | 69 | 3.2 | 9.7 | 0.00 | 0.00 | 0.00 | 58 | 1023.4 |
| 20260508085527 | 14 | 55 | 1.6 | 9.7 | 0.00 | 0.00 | 0.00 | 64 | 1023.4 |
| 20260508085024 | 14 | 186 | 1.6 | 9.7 | 0.00 | 0.00 | 0.00 | 64 | 1023.4 |
| 20260508084523 | 14 | 122 | 3.2 | 9.7 | 0.00 | 0.00 | 0.00 | 63 | 1023.4 |
| 20260508084021 | 14 | 36 | 1.6 | 6.4 | 0.00 | 0.00 | 0.00 | 64 | 1023.4 |
| 20260508083521 | 14 | 200 | 1.6 | 9.7 | 0.00 | 0.00 | 0.00 | 64 | 1023.3 |
| 20260508083018 | 14 | 33 | 1.6 | 6.4 | 0.00 | 0.00 | 0.00 | 64 | 1023.3 |
| 20260508082522 | 14 | 110 | 1.6 | 6.4 | 0.00 | 0.00 | 0.00 | 64 | 1023.2 |
| 20260508082018 | 13 | 67 | 3.2 | 8.0 | 0.00 | 0.00 | 0.00 | 64 | 1023.3 |
| 20260508081517 | 14 | 202 | 3.2 | 6.4 | 0.00 | 0.00 | 0.00 | 62 | 1023.3 |
| 20260508081017 | 13 | 43 | 1.6 | 6.4 | 0.00 | 0.00 | 0.00 | 62 | 1023.2 |
| 20260508080513 | 13 | 200 | 1.6 | 8.0 | 0.00 | 0.00 | 0.00 | 62 | 1023.2 |
| 20260508080013 | 13 | 63 | 1.6 | 8.0 | 0.00 | 0.00 | 0.00 | 63 | 1023.3 |
| 20260508075512 | 13 | 127 | 3.2 | 6.4 | 0.00 | 0.00 | 0.00 | 62 | 1023.2 |
| 20260508075010 | 13 | 297 | 1.6 | 11.3 | 0.00 | 0.00 | 0.00 | 64 | 1023.1 |
| 20260508074514 | 13 | 186 | 4.8 | 11.3 | 0.00 | 0.00 | 0.00 | 62 | 1023.1 |
| 20260508074008 | 13 | 174 | 1.6 | 8.0 | 0.00 | 0.00 | 0.00 | 64 | 1023.1 |
| 20260508073507 | 13 | 67 | 3.2 | 8.0 | 0.00 | 0.00 | 0.00 | 63 | 1023.1 |
| 20260508073006 | 13 | 218 | 3.2 | 9.7 | 0.00 | 0.00 | 0.00 | 63 | 1023.1 |
| 20260508072505 | 13 | 83 | 1.6 | 9.7 | 0.00 | 0.00 | 0.00 | 65 | 1023.1 |
| 20260508072003 | 13 | 205 | 3.2 | 9.7 | 0.00 | 0.00 | 0.00 | 65 | 1023.0 |
| 20260508071505 | 13 | 109 | 1.6 | 6.4 | 0.00 | 0.00 | 0.00 | 69 | 1023.1 |
| 20260508071100 | 12 | 105 | 1.6 | 6.4 | 0.00 | 0.00 | 0.00 | 70 | 1023.1 |
| 20260508070602 | 12 | 52 | 1.6 | 9.7 | 0.00 | 0.00 | 0.00 | 70 | 1023.0 |
| 20260508070059 | 12 | 92 | 3.2 | 9.7 | 0.00 | 0.00 | 0.00 | 68 | 1022.9 |
| 20260508065557 | 12 | 128 | 1.6 | 6.4 | 0.00 | 0.00 | 0.00 | 70 | 1022.8 |
| 20260508065055 | 12 | 61 | 1.6 | 8.0 | 0.00 | 0.00 | 0.00 | 72 | 1022.8 |
| 20260508064555 | 12 | 94 | 1.6 | 8.0 | 0.00 | 0.00 | 0.00 | 72 | 1022.8 |
| 20260508064052 | 12 | 89 | 1.6 | 8.0 | 0.00 | 0.00 | 0.00 | 74 | 1022.7 |
| 20260508063551 | 11 | 77 | 1.6 | 8.0 | 0.00 | 0.00 | 0.00 | 75 | 1022.7 |
| 20260508063101 | 11 | 202 | 0.0 | 6.4 | 0.00 | 0.00 | 0.00 | 77 | 1022.7 |
| 20260508062551 | 11 | 194 | 3.2 | 6.4 | 0.00 | 0.00 | 0.00 | 78 | 1022.6 |
| 20260508062046 | 11 | 76 | 1.6 | 6.4 | 0.00 | 0.00 | 0.00 | 80 | 1022.5 |
| 20260508061547 | 11 | 245 | 1.6 | 4.8 | 0.00 | 0.00 | 0.00 | 84 | 1022.5 |
| 20260508061043 | 10 | 76 | 0.0 | 4.8 | 0.00 | 0.00 | 0.00 | 87 | 1022.4 |
| 20260508060541 | 10 | 164 | 1.6 | 3.2 | 0.00 | 0.00 | 0.00 | 91 | 1022.3 |
| 20260508060040 | 9 | 165 | 1.6 | 4.8 | 0.00 | 0.00 | 0.00 | 93 | 1022.2 |
| 20260508055538 | 9 | 76 | 0.0 | 3.2 | 0.00 | 0.00 | 0.00 | 96 | 1022.2 |
| 20260508055037 | 8 | 158 | 0.0 | 3.2 | 0.00 | 0.00 | 0.00 | 96 | 1022.1 |
| 20260508054536 | 8 | 165 | 1.6 | 3.2 | 0.00 | 0.00 | 0.00 | 97 | 1022.2 |
| 20260508054035 | 8 | 182 | 0.0 | 3.2 | 0.00 | 0.00 | 0.00 | 97 | 1022.1 |
| 20260508053533 | 7 | 194 | 0.0 | 3.2 | 0.00 | 0.00 | 0.00 | 97 | 1022.1 |
| 20260508053032 | 7 | 198 | 0.0 | 1.6 | 0.00 | 0.00 | 0.00 | 97 | 1022.0 |
| 20260508052530 | 7 | 198 | 0.0 | 1.6 | 0.00 | 0.00 | 0.00 | 97 | 1022.0 |
| 20260508052030 | 6 | 198 | 0.0 | 0.0 | 0.00 | 0.00 | 0.00 | 97 | 1022.0 |